Regional Weather Roundup
Issued by NWS

Home | Current Version | Previous Version | Graphics & Text | Print | Product List | Glossary Off
Versions: 1 2 3 4 5 6 7 8 9 10 11 12 13 14 15 16 17 18 19 20 21 22 23 24 25 26 27 28 29 30 31 32 33 34 35 36 37 38 39 40 41 42 43 44 45 46 47 48 49 50

000
ASUS43 KMKX 071511
RWRWI

WISCONSIN REGIONAL WEATHER ROUNDUP
NATIONAL WEATHER SERVICE MILWAUKEE/SULLIVAN WI
1000 AM CDT TUE JUL 07 2015

NOTE: "FAIR" INDICATES FEW OR NO CLOUDS BELOW 12,000 FEET WITH NO
SIGNIFICANT WEATHER AND/OR OBSTRUCTIONS TO VISIBILITY.

WIZ001-002-006>008-014>016-023>028-071600-
NORTHWEST WISCONSIN

CITY           SKY/WX    TMP DP  RH WIND       PRES   REMARKS
SUPERIOR ARPT  SUNNY     63  48  57 N10       30.15S
ASHLAND        SUNNY     62  50  64 N10       30.14R
HAYWARD        PTSUNNY   60  48  64 NE8       30.15R
SIREN          MOSUNNY   61  46  57 N6        30.16R
CUMBERLAND     MOSUNNY   59  43  55 N7        30.15R
RICE LAKE      PTSUNNY   59  45  59 NW8       30.16S
CHETEK         MOSUNNY   60  47  62 N9        30.14R
LADYSMITH      SUNNY     60  49  67 N7        30.14S
EAU CLAIRE     PTSUNNY   62  44  51 N10G22    30.12S
MENOMONIE      MOSUNNY   62  42  46 N12G18    30.13F
NEW RICHMOND   MOSUNNY   61  46  59 N9        30.16S
OSCEOLA        SUNNY     61  46  59 N5        30.19S
$$

WIZ003>005-009-010-017-018-071600-
NORTH CENTRAL WISCONSIN

CITY           SKY/WX    TMP DP  RH WIND       PRES   REMARKS
MANITOWISH WTR MOSUNNY   58  48  70 N9        30.11R
ARBOR VITAE    PTSUNNY   59  49  68 N14G20    30.10R
WOODRUFF       PTSUNNY   59  49  68 N14G20    30.10R
RHINELANDER    CLOUDY    57  44  62 N9G18     30.09R
EAGLE RIVER    PTSUNNY   55  43  62 N15G22    30.09R
LAND O LAKES   PTSUNNY   56  45  68 N14       30.10S
PHILLIPS       MOSUNNY   56  47  71 N13G18    30.11S
TOMAHAWK       CLOUDY    56  45  66 NW9       30.11R
MEDFORD        PTSUNNY   57  46  65 N14G20    30.10S
MERRILL        CLOUDY    57  46  66 N10G20    30.10R
$$

WIZ029-030-035-036-043>047-071600-
CENTRAL WISCONSIN

CITY           SKY/WX    TMP DP  RH WIND       PRES   REMARKS
WAUSAU         PTSUNNY   60  44  55 N10G22    30.08R
MOSINEE        PTSUNNY   57  46  67 N13       30.10R
MARSHFIELD     PTSUNNY   60  44  55 N13       30.10R
STEVENS POINT  CLOUDY    58  44  59 N9G18     30.09R
WAUPACA        PTSUNNY   64  50  59 N12       30.06R
WAUTOMA        PTSUNNY   63  54  72 N9        30.06R
WISC RAPIDS    PTSUNNY   64  46  52 NE14G21   30.09R
CAMP DOUGLAS   MOSUNNY   63  55  77 N12       30.08R
$$

WIZ011>013-019>022-031-037>040-048>050-071600-
NORTHEAST WISCONSIN

CITY           SKY/WX    TMP DP  RH WIND       PRES   REMARKS
ANTIGO         CLOUDY    56  45  64 N14G23    30.08R
SHAWANO        PTSUNNY   62  46  53 N15G22    30.06R
OCONTO         CLOUDY    60  48  64 N9G18     30.04R
STURGEON BAY   MOSUNNY   59  48  67 N16G24    30.04R
GREEN BAY      PTSUNNY   65  49  56 N13       30.04R
MANITOWOC      MOSUNNY   63  49  60 MISG      30.02R
APPLETON       PTSUNNY   61  46  59 N16       30.05R
CLINTONVILLE   MOSUNNY   61  45  55 N12       30.06R
OSHKOSH        MOSUNNY   65  49  56 N12       30.04R
$$

WIZ032>034-041-042-053>061-071600-
SOUTHWEST WISCONSIN

CITY           SKY/WX    TMP DP  RH WIND       PRES   REMARKS
LA CROSSE      MOSUNNY   62  46  55 N12       30.11R
SPARTA         MOSUNNY   62  46  56 NE14      30.11R
VIROQUA        MOSUNNY   61  50  66 N10G16    30.10R
BOSCOBEL       MOSUNNY   65  53  65 N10       30.08R
PRAIRIE DU CHI MOSUNNY   63  49  61 N8        30.08R
PLATTEVILLE    CLOUDY    61  55  81 N10       30.07R
$$

WIZ056-057-062-063-064-067-068-071600-
SOUTH CENTRAL WISCONSIN

CITY           SKY/WX    TMP DP  RH WIND       PRES   REMARKS
REEDSBURG      PTSUNNY   60  53  77 N9        30.07R
BARABOO/DELLS  CLOUDY    60  51  73 NW5       30.07R
LONE ROCK      CLOUDY    64  54  69 VRB5      30.07R HAZE
MINERAL POINT  CLOUDY    63  55  77 NW9       30.07R HAZE
MADISON        PTSUNNY   65  55  70 N10       30.04R SMOKE
MIDDLETON      CLOUDY    65  54  69 N8        30.05R
WATERTOWN      PTSUNNY   64  56  76 N8        30.03R
MONROE         PTSUNNY   63  55  77 N13       30.03R HAZE
JANESVILLE     CLOUDY    66  55  68 N13       30.01R HAZE
$$

WIZ051-052-058>065-066-070>072-071600-
SOUTHEAST WISCONSIN

CITY           SKY/WX    TMP DP  RH WIND       PRES   REMARKS
MILWAUKEE      MOSUNNY   63  49  60 NE17G24   30.01R
WAUKESHA       MOSUNNY   63  52  67 N7        30.03R
MILWAUKEE/TIMM SUNNY     64  48  55 N14       30.02R
RACINE         SUNNY     63  51  65 N13G24    30.03R
BURLINGTON     MOSUNNY   63  55  75 NE9       30.01S
KENOSHA        MOSUNNY   64  51  62 N12       30.01R
FOND DU LAC    PTSUNNY   63  49  60 N14       30.04R
SHEBOYGAN      MOSUNNY   62  48  60 N13G22    30.02R
WEST BEND      MOSUNNY   61  48  63 N10G17    30.02R
JUNEAU         PTSUNNY   61  50  65 N14       30.04S
$$

LSZ147-162-071600-
LAKE SUPERIOR

STATION/POSITION TIME  TEMP    WIND        PRES    WAVE
                       AIR SEA DIR/SP/G            HT/PER
                 (UTC) (F)     (DEG/KT/KT) (MB)    (FT/S)
W MID LAKE BUOY  1450   47 39  280/  8/  8 1020.0R   1
DEVILS ISLAND    1500   56     330/  7/  8 1020.9R
PORT WING        1440   59     350/  5/  8 1021.0R
SAXON HARBOR     1400   59     350/ 10/ 14 1019.6R
$$

LMZ867-665-643>646-071600-
LAKE MICHIGAN

STATION/POSITION TIME  TEMP    WIND        PRES    WAVE
                       AIR SEA DIR/SP/G            HT/PER
                 (UTC) (F)     (DEG/KT/KT) (MB)    (FT/S)
CHAMBERS ISLAND  1400   59     320/ 16/ 18 1016.3R
N MID LAKE BUOY  1450   54 51  310/ 16/ 19 1015.4R   3/ 4
NORTHPORT PIER   1400   58     330/ 18/ 22 1015.9R
SISTER BAY       1429   60     360/ 21/ 25   N/A
ALGOMA LAKESHORE 1411           10/ 17/ 22   N/A
KEWAUNEE LAKESHO 1400   60     350/ 14/ 19 1015.2R
SHEBOYGAN LAKESH 1500   58      20/ 13/ 14 1016.7R
PORT WASHINGTON  1400   64      20/  8/ 14 1016.6R
ATWATER BUOY     1500   59 58   10/ 10/ 14 1017.7R
MILWAUKEE LAKESH 1400   61     360/ 13/ 17   N/A
KENOSHA   LAKESH 1500   59      10/ 19/ 25 1015.9R
$$

TC  - TEMPERATURE IN CELSIUS
VSB - VISIBILITY IN STATUTE MILES
WCI - WIND CHILL INDEX
HX  - HEAT INDEX




USA.gov is the U.S. government's official web portal to all federal, state and local government web resources and services.